Погода в Пласкинине

Россия / Московская область     55°32′24″N   38°25′43″E
темп.,
°C
ветер,
м/с
пор.,
м/с
влажн.,
%
обл.,
%
осадки,
мм/ч
давл.,
гПа
погр.,
м
6 мая, чт
чт600:00+8ююз31193100 0.1 1008297
03:00+8ю41290100 0.1 1008286
06:00+8ю41391100 0.0 1007331
09:00+13ю61577100 0.0 1007773
12:00+15ю81565100 0.1 10061802
15:00+14ю9166595 1.2 10051711
18:00+11ююз91575100 0.1 10051380
21:00+8зюз6108495 0.4 1007720
7 мая, пт
пт700:00+6ююз41095100 0.0 1009343
03:00+5юз41096100 0.0 1010367
06:00+5юз3109078 0.0 1011425
09:00+9зюз696150 0.0 10131092
12:00+13зюз58455 0.0 10131932
15:00+14юз694189 0.0 10132357
18:00+13ююз595636 0.1 10131036
21:00+8ююв41276100 0.1 1014251
8 мая, сб
сб800:00+9ююв51466100 0.0 1013424
03:00+9ююв61660100 0.0 1011645
06:00+9ююв61664100 0.0 1010631
09:00+9юв61484100 0.6 10071214
12:00+9ююв71595100 3.6 10041081
15:00+11ю71295100 4.9 1003907
18:00+10ююз51194100 2.1 1003716
21:00+8зюз71287100 2.5 1005851
9 мая, вс
вс900:00+4з61287100 0.0 1008942
03:00+5зюз61182100 0.0 1010867
06:00+5з598075 0.0 1013901
09:00+6з5872100 0.0 10161093
12:00+9зсз465987 0.0 10181376
15:00+11сз5747100 0.0 10191850
18:00+12с255195 0.0 1020600
21:00+6ссз23664 0.0 102436
10 мая, пн
пн1000:00+4с22750 0.0 102625
03:00+2с22815 0.0 102716
06:00+4с117757 0.0 102942
09:00+11с125189 0.0 1029616
12:00+14ссв22375 0.0 10291431
15:00+16ссв12345 0.0 10281699
18:00+15всв01455 0.0 1028905
21:00+9юв11590 0.0 102910